When you browse on this site, cookies collect data to enhance your experience and personalize the content and advertising you see.
Visit our Privacy Policy to learn more. By continuing to use the site, you agree to this use of cookies and data.
  • In Hungary
  • List of Countries
  • For 7 days
  • Water Temperature
  • Satellite Maps
  • Weather Map
  • News
  • Weather Widgets
  • user-avatar
    Login

    Hourly Weather Stryszki

    Today, 26 May, Sunday

    Time Temperature Precipitation Wind Pressure Humidity
    00:00 +12°C° 0 mm 2 mps 758 mmHg 80%
    01:00 +10°C° 0 mm 2 mps 758 mmHg 82%
    02:00 +12°C° 0 mm 2 mps 758 mmHg 81%
    03:00 +12°C° 0 mm 2 mps 758 mmHg 79%
    04:00 +11°C° 0 mm 3 mps 758 mmHg 78%
    05:00 +12°C° 0 mm 3 mps 758 mmHg 74%
    06:00 +13°C° 0 mm 4 mps 757 mmHg 70%
    07:00 +14°C° 0 mm 4 mps 757 mmHg 66%
    08:00 +15°C° 0 mm 4 mps 757 mmHg 61%
    09:00 +17°C° 0 mm 4 mps 757 mmHg 55%
    10:00 +17°C° 0 mm 5 mps 756 mmHg 50%
    11:00 +20°C° 0 mm 5 mps 756 mmHg 48%
    12:00 +21°C° 0 mm 5 mps 756 mmHg 45%
    13:00 +22°C° 0 mm 6 mps 755 mmHg 43%
    14:00 +22°C° 0 mm 6 mps 755 mmHg 44%
    15:00 +22°C° 0 mm 6 mps 754 mmHg 45%
    16:00 +22°C° 0 mm 6 mps 754 mmHg 46%
    17:00 +22°C° 0 mm 5 mps 754 mmHg 51%
    18:00 +21°C° 0 mm 3 mps 754 mmHg 57%
    19:00 +20°C° 0 mm 2 mps 753 mmHg 62%
    20:00 +19°C° 0 mm 3 mps 753 mmHg 66%
    21:00 +17°C° 0 mm 3 mps 753 mmHg 70%
    22:00 +16°C° 0 mm 3 mps 754 mmHg 75%
    23:00 +16°C° 0 mm 3 mps 753 mmHg 75%

    Tomorrow, 27 May, Monday

    Time Temperature Precipitation Wind Pressure Humidity
    00:00 +16°C° 0 mm 3 mps 753 mmHg 76%
    01:00 +15°C° 0 mm 4 mps 753 mmHg 76%
    02:00 +15°C° 0 mm 4 mps 753 mmHg 78%
    03:00 +14°C° 0 mm 4 mps 752 mmHg 80%
    04:00 +14°C° 0 mm 4 mps 752 mmHg 82%
    05:00 +15°C° 0 mm 4 mps 752 mmHg 77%
    06:00 +18°C° 0 mm 4 mps 752 mmHg 72%
    07:00 +19°C° 0 mm 4 mps 752 mmHg 68%
    08:00 +20°C° 0 mm 5 mps 752 mmHg 64%
    09:00 +21°C° 0 mm 5 mps 752 mmHg 59%
    10:00 +22°C° 0 mm 6 mps 752 mmHg 55%
    11:00 +22°C° 0.3 mm 6 mps 752 mmHg 58%
    12:00 +22°C° 0.3 mm 5 mps 752 mmHg 60%
    13:00 +22°C° 0.3 mm 5 mps 752 mmHg 63%
    14:00 +22°C° 0.1 mm 4 mps 752 mmHg 61%
    15:00 +22°C° 0.1 mm 4 mps 752 mmHg 59%
    16:00 +22°C° 0.1 mm 3 mps 752 mmHg 57%
    17:00 +21°C° 0 mm 2 mps 752 mmHg 60%
    18:00 +20°C° 0 mm 2 mps 752 mmHg 64%
    19:00 +21°C° 0 mm 1 mps 752 mmHg 67%
    20:00 +20°C° 0 mm 1 mps 752 mmHg 69%
    21:00 +19°C° 0 mm 1 mps 752 mmHg 72%
    22:00 +18°C° 0 mm 1 mps 752 mmHg 74%
    23:00 +15°C° 0.1 mm 0 mps 752 mmHg 76%

    Day after tomorrow, 28 May, Tuesday

    Time Temperature Precipitation Wind Pressure Humidity
    00:00 +15°C° 0.1 mm 0 mps 752 mmHg 79%
    01:00 +15°C° 0.1 mm 0 mps 751 mmHg 81%
    02:00 +15°C° 0 mm 1 mps 751 mmHg 83%
    03:00 +15°C° 0 mm 1 mps 751 mmHg 85%
    04:00 +14°C° 0 mm 2 mps 751 mmHg 87%
    05:00 +13°C° 0.3 mm 3 mps 751 mmHg 86%
    06:00 +13°C° 0.3 mm 3 mps 751 mmHg 86%
    07:00 +13°C° 0.3 mm 4 mps 751 mmHg 86%
    08:00 +13°C° 0.5 mm 4 mps 751 mmHg 85%
    09:00 +13°C° 0.5 mm 4 mps 751 mmHg 84%
    10:00 +13°C° 0.5 mm 3 mps 751 mmHg 82%
    11:00 +13°C° 0.7 mm 3 mps 751 mmHg 82%
    12:00 +14°C° 0.7 mm 3 mps 751 mmHg 81%
    13:00 +14°C° 0.7 mm 3 mps 751 mmHg 80%
    14:00 +14°C° 0.5 mm 3 mps 752 mmHg 81%
    15:00 +15°C° 0.5 mm 2 mps 752 mmHg 82%
    16:00 +14°C° 0.5 mm 2 mps 752 mmHg 83%
    17:00 +14°C° 0.2 mm 2 mps 752 mmHg 85%
    18:00 +13°C° 0.2 mm 2 mps 752 mmHg 87%
    19:00 +13°C° 0.2 mm 2 mps 753 mmHg 89%
    20:00 +12°C° 0 mm 2 mps 753 mmHg 89%
    21:00 +10°C° 0 mm 2 mps 753 mmHg 90%
    22:00 +10°C° 0 mm 2 mps 754 mmHg 90%
    23:00 +9°C° 0 mm 2 mps 754 mmHg 90%

    29 May, Wednesday

    Time Temperature Precipitation Wind Pressure Humidity
    00:00 +8°C° 0 mm 2 mps 754 mmHg 91%
    01:00 +7°C° 0 mm 2 mps 754 mmHg 91%
    02:00 +7°C° 0 mm 2 mps 755 mmHg 91%
    03:00 +7°C° 0 mm 2 mps 755 mmHg 92%
    04:00 +6°C° 0 mm 2 mps 755 mmHg 92%
    05:00 +8°C° 0 mm 2 mps 756 mmHg 87%
    06:00 +9°C° 0 mm 3 mps 756 mmHg 83%
    07:00 +10°C° 0 mm 3 mps 757 mmHg 78%
    08:00 +12°C° 0 mm 3 mps 757 mmHg 70%
    09:00 +14°C° 0 mm 4 mps 758 mmHg 62%
    10:00 +15°C° 0 mm 4 mps 758 mmHg 55%
    11:00 +17°C° 0 mm 4 mps 758 mmHg 52%
    12:00 +18°C° 0 mm 4 mps 758 mmHg 50%
    13:00 +18°C° 0 mm 4 mps 759 mmHg 48%
    14:00 +17°C° 0 mm 5 mps 759 mmHg 47%
    15:00 +17°C° 0 mm 5 mps 759 mmHg 47%
    16:00 +16°C° 0 mm 5 mps 759 mmHg 46%
    17:00 +15°C° 0 mm 4 mps 760 mmHg 50%
    18:00 +14°C° 0 mm 4 mps 760 mmHg 54%
    19:00 +12°C° 0 mm 3 mps 761 mmHg 57%
    20:00 +11°C° 0 mm 3 mps 761 mmHg 63%
    21:00 +9°C° 0 mm 2 mps 762 mmHg 69%
    22:00 +7°C° 0 mm 2 mps 762 mmHg 75%
    23:00 +7°C° 0 mm 2 mps 763 mmHg 77%

    30 May, Thursday

    Time Temperature Precipitation Wind Pressure Humidity
    00:00 +7°C° 0 mm 1 mps 763 mmHg 80%
    01:00 +6°C° 0 mm 1 mps 763 mmHg 83%
    02:00 +6°C° 0 mm 1 mps 763 mmHg 83%
    03:00 +6°C° 0 mm 1 mps 763 mmHg 84%
    04:00 +5°C° 0 mm 1 mps 764 mmHg 85%
    05:00 +8°C° 0 mm 1 mps 764 mmHg 76%
    06:00 +10°C° 0 mm 1 mps 764 mmHg 68%
    07:00 +11°C° 0 mm 0 mps 764 mmHg 59%
    08:00 +14°C° 0 mm 1 mps 764 mmHg 51%
    09:00 +16°C° 0 mm 1 mps 764 mmHg 44%
    10:00 +19°C° 0 mm 1 mps 764 mmHg 37%
    11:00 +20°C° 0 mm 1 mps 763 mmHg 36%
    12:00 +20°C° 0 mm 2 mps 763 mmHg 35%
    13:00 +21°C° 0 mm 2 mps 763 mmHg 34%
    14:00 +21°C° 0 mm 2 mps 762 mmHg 34%
    15:00 +21°C° 0 mm 2 mps 762 mmHg 35%
    16:00 +21°C° 0 mm 3 mps 761 mmHg 36%
    17:00 +20°C° 0 mm 3 mps 761 mmHg 42%
    18:00 +19°C° 0 mm 2 mps 761 mmHg 49%
    19:00 +18°C° 0 mm 2 mps 761 mmHg 56%
    20:00 +17°C° 0 mm 2 mps 761 mmHg 60%
    21:00 +14°C° 0 mm 3 mps 761 mmHg 64%
    22:00 +13°C° 0 mm 3 mps 760 mmHg 68%
    23:00 +13°C° 0 mm 3 mps 760 mmHg 66%

    31 May, Friday

    Time Temperature Precipitation Wind Pressure Humidity
    00:00 +14°C° 0 mm 3 mps 760 mmHg 64%
    01:00 +14°C° 0 mm 3 mps 759 mmHg 62%
    02:00 +14°C° 0.3 mm 3 mps 759 mmHg 71%
    03:00 +14°C° 0.3 mm 2 mps 759 mmHg 80%
    04:00 +13°C° 0.3 mm 2 mps 759 mmHg 89%
    05:00 +12°C° 1.2 mm 3 mps 759 mmHg 90%
    06:00 +12°C° 1.2 mm 4 mps 759 mmHg 92%
    07:00 +12°C° 1.2 mm 5 mps 759 mmHg 94%
    08:00 +12°C° 0.9 mm 5 mps 760 mmHg 90%
    09:00 +12°C° 0.9 mm 4 mps 760 mmHg 86%
    10:00 +11°C° 0.9 mm 4 mps 761 mmHg 82%
    11:00 +13°C° 0 mm 5 mps 761 mmHg 68%
    12:00 +15°C° 0 mm 5 mps 762 mmHg 54%
    13:00 +17°C° 0 mm 5 mps 763 mmHg 39%
    14:00 +17°C° 0 mm 5 mps 763 mmHg 41%
    15:00 +16°C° 0 mm 5 mps 763 mmHg 43%
    16:00 +16°C° 0 mm 6 mps 764 mmHg 45%
    17:00 +15°C° 0 mm 5 mps 764 mmHg 51%
    18:00 +14°C° 0 mm 5 mps 764 mmHg 57%
    19:00 +12°C° 0 mm 4 mps 764 mmHg 62%
    20:00 +11°C° 0 mm 4 mps 765 mmHg 67%
    21:00 +10°C° 0 mm 3 mps 765 mmHg 71%
    22:00 +8°C° 0 mm 3 mps 766 mmHg 75%
    23:00 +8°C° 0 mm 3 mps 766 mmHg 76%
    Show more